Home   Weather   Bournemouth   Past weeks

Flag for United Kingdom Past Weather in Bournemouth, England, United Kingdom — Yesterday and Last 2 Weeks

37 °F


Feels Like: 35 °F
Forecast: 45 / 55 °F
Wind: 3 mph from Northwest

Location: Bournemouth Airport

Current Time: Oct 22, 2016 at 3:02:10 AM

Latest Report: Oct 21, 2016 at 11:50 PM

Visibility: 5 mi

Pressure: 30.07 "Hg

Humidity: 100%

Dew Point: 37 °F

Location of BournemouthLocation

Past Weather in Bournemouth — Graph


Bournemouth Temperature Yesterday

Maximum temperature yesterday: 55 °F (at 2:50 PM)
Minimum temperature yesterday: 34 °F (at 5:50 AM)
Average temperature yesterday: 46 °F

High & Low Weather Summary for the Past Weeks

High63 °F (Oct 16, 11:50 AM)100% (Oct 8, 8:20 AM)30.36 "Hg (Oct 8, 8:20 AM)
Low34 °F (Oct 21, 5:50 AM)52% (Oct 11, 2:50 PM)29.62 "Hg (Oct 14, 10:20 PM)
Average52 °F82%30.07 "Hg
* Reported Oct 7 5:50 AM — Oct 21 11:50 PM, Bournemouth, Weather by CustomWeather, © 2016

Note: Actual official high and low records may vary slightly from our data, if they occured in-between our weather recording intervals... More about our weather records


Bournemouth Weather History for the Previous 24 Hours

Scroll right to see more
Time TempWeatherWind HumidityBarometerVisibility
11:50 PM
Fri, Oct 21
37 °FFog.3 mph100%30.07 "Hg5 mi
11:20 PM37 °FFog.3 mph100%30.09 "HgN/A
10:50 PM39 °FFog.5 mph93%30.09 "HgN/A
10:20 PM39 °FFog.1 mph100%30.09 "HgN/A
9:50 PM41 °FFog.3 mph93%30.09 "Hg5 mi
9:20 PM41 °FFog.2 mph100%30.09 "HgN/A
8:50 PM41 °FClear.5 mph93%30.09 "Hg10 mi
8:20 PM41 °FClear.5 mph93%30.09 "Hg10 mi
7:50 PM45 °FClear.1 mph87%30.09 "Hg10 mi
7:20 PM45 °FPassing clouds.6 mph87%30.09 "HgN/A
6:50 PM48 °FPassing clouds.2 mph87%30.09 "HgN/A
6:20 PM50 °FPassing clouds.3 mph76%30.09 "HgN/A
5:50 PM50 °FPassing clouds.3 mph76%30.09 "HgN/A
5:20 PM52 °FPassing clouds.6 mph72%30.09 "HgN/A
4:50 PM54 °FPassing clouds.7 mph67%30.09 "HgN/A
4:20 PM55 °FPassing clouds.9 mph63%30.09 "HgN/A
3:50 PM55 °FPassing clouds.8 mph67%30.09 "HgN/A
3:20 PM55 °FPassing clouds.9 mph67%30.09 "HgN/A
2:50 PM55 °FPassing clouds.9 mph67%30.12 "HgN/A
2:20 PM54 °FPassing clouds.7 mph72%30.12 "HgN/A
1:50 PM54 °FPassing clouds.8 mph72%30.12 "HgN/A
1:20 PM54 °FPassing clouds.8 mph77%30.12 "HgN/A
12:50 PM52 °FPassing clouds.8 mph82%30.12 "HgN/A
12:20 PM52 °FScattered clouds.10 mph82%30.15 "HgN/A
11:50 AM50 °FScattered clouds.10 mph82%30.15 "HgN/A
11:20 AM48 °FPartly sunny.7 mph94%30.15 "Hg6 mi
10:50 AM46 °FFog.7 mph100%30.15 "Hg3 mi
10:20 AM46 °FFog.8 mph93%30.15 "Hg3 mi
9:50 AM45 °FFog.10 mph100%30.15 "Hg2 mi
9:20 AM45 °FFog.8 mph100%30.15 "Hg2 mi
8:50 AM45 °FFog.9 mph100%30.15 "Hg2 mi
8:20 AM45 °FFog.7 mph100%30.15 "Hg2 mi
7:50 AM45 °FFog.7 mph100%30.15 "Hg2 mi
7:20 AM45 °FFog.7 mph100%30.15 "HgN/A
6:50 AM43 °FFog.7 mph100%30.15 "Hg4 mi
6:20 AM37 °FFog.3 mph100%30.15 "Hg2 mi
5:50 AM34 °FFog.2 mph100%30.15 "Hg2 mi
Weather by CustomWeather, © 2016

See weather overviewHow to use our weather pages